#timestamp,LO_Frequency,Hit 
1502542815.3,286047001.0,N
1502542835.2,286047001.1,N
1502542855.0,286046999.1,N
1502542855.9,286046999.1,N
1502542875.7,286047001.1,N
1502542895.6,286046997.0,N
1502542915.4,286046994.0,N
1502542935.2,286046995.4,N
1502542955.1,286046993.2,N
1502542956.0,286046993.2,N
1502542975.8,286046993.2,N
1502542995.6,286046994.1,N
1502543015.5,286046996.2,N
1502543035.3,286046994.5,N
1502543055.1,286046992.1,N
1502543075.9,286046995.7,N
1502543095.7,286046996.7,N
1502543115.5,286046996.6,N
1502543135.4,286046993.4,N
1502543155.2,286046996.0,N
1502543175.0,286046996.1,N
1502543175.9,286046996.1,N
1502543195.8,286046999.5,N
1502543215.6,286046998.7,N
1502543235.4,286046995.5,N
1502543255.3,286046996.2,N
1502543275.1,286046994.9,N
1502543276.0,286046994.9,N
1502543295.8,286046994.5,N
1502543315.7,286046997.5,N
1502543335.5,286046999.4,N
1502543355.3,286047001.2,N
1502543375.1,286047001.0,N
1502543395.9,286047002.4,N
1502543415.7,286047002.1,N
1502543435.5,286046996.6,N
1502543455.4,286046996.6,N
1502543475.2,286046998.7,N
1502543495.5,286046995.4,N
1502543515.3,286046997.7,N
1502543535.2,286046995.8,N
1502543555.0,286046993.8,N
1502543555.9,286046993.8,N
1502543575.7,286047000.7,N
1502543595.6,286047002.2,N
1502543615.4,286047002.8,N
1502543635.2,286047002.4,N
1502543655.1,286047002.7,N
1502543656.0,286047002.7,N
1502543675.8,286047002.8,N
1502543695.6,286047004.3,N
1502543715.5,286047005.9,N
1502543735.3,286047004.0,N
1502543755.1,286047007.5,N
1502543775.9,286047003.2,N
1502543795.7,286047004.5,N
1502543815.5,286047004.8,N
1502543835.4,286047005.8,N
1502543855.2,286047003.1,N
1502543875.0,286047004.9,N
1502543875.9,286047004.9,N
1502543895.8,286047007.6,N
1502543915.6,286047003.6,N
1502543935.4,286047002.6,N
1502543955.3,286047002.2,N
1502543975.1,286047003.0,N
1502543976.0,286047003.0,N
1502543995.8,286047007.4,N
1502544015.7,286047008.4,N
1502544035.5,286047011.9,P
1502544055.3,286047007.6,N
1502544075.2,286047003.0,N
1502544095.5,286046999.7,N
1502544115.3,286047002.2,N
1502544135.2,286047000.8,N
1502544155.1,286046998.3,N
1502544156.0,286046998.3,N
1502544175.8,286046997.1,N
1502544195.6,286046995.0,N
1502544215.5,286046997.7,N
1502544235.3,286046999.8,N
1502544255.1,286047004.5,N
1502544275.9,286047000.7,N
1502544295.7,286047000.3,N
1502544315.5,286047003.2,N
1502544335.4,286047004.0,N
1502544355.2,286047002.5,N
1502544375.0,286046999.8,N
1502544375.9,286046999.8,N
1502544395.8,286047004.4,N
1502544415.6,286047001.5,N
1502544435.4,286046999.2,N
1502544455.7,286046995.3,N
1502544475.1,286046998.2,N
1502544495.8,286047000.9,N
1502544515.7,286047001.0,N
1502544535.5,286046999.1,N
1502544555.3,286046996.5,N
1502544575.2,286046999.1,N
1502544595.9,286046998.6,N
1502544615.7,286047002.5,N
1502544635.6,286047001.1,N
1502544655.4,286046996.6,N
1502544675.2,286047000.4,N
1502544695.1,286047001.0,N
1502544696.0,286047001.0,N
1502544715.8,286047003.7,N
1502544735.6,286047002.2,N
1502544755.5,286047000.1,N
1502544775.3,286047003.9,N
1502544795.1,286047001.0,N
1502544815.8,286047000.9,N
1502544835.7,286047004.2,N
1502544855.5,286047003.9,N
1502544875.3,286047001.6,N
1502544895.2,286047000.3,N
1502544915.5,286046998.4,N
1502544935.3,286047001.6,N
1502544955.1,286047005.2,N
1502544975.8,286047003.3,N
1502544995.7,286047004.2,N
1502545015.5,286047003.9,N
1502545035.3,286047003.2,N
1502545055.2,286047002.6,N
1502545075.9,286047002.1,N
1502545095.7,286047005.2,N
1502545115.6,286047003.4,N
1502545135.4,286047005.7,N
1502545155.2,286047005.6,N
1502545175.1,286047001.9,N
1502545176.0,286047001.9,N
1502545195.8,286047005.3,N
1502545215.6,286047005.6,N
1502545235.5,286047003.8,N
1502545255.3,286047000.8,N
1502545275.1,286047002.4,N
1502545295.6,286047002.5,N
1502545315.5,286046998.3,N
1502545335.3,286046997.2,N
1502545355.1,286047000.1,N
1502545375.8,286047000.4,N
1502545395.7,286046999.7,N
1502545415.5,286046998.6,N
1502545435.3,286047002.5,N
1502545455.2,286047000.4,N
1502545475.0,286047002.6,N
1502545475.9,286047002.6,N
1502545495.7,286047001.7,N
1502545515.6,286047002.8,N
1502545535.4,286047000.6,N
1502545555.3,286047000.7,N
1502545575.1,286047001.7,N
1502545576.0,286047001.7,N
1502545595.8,286046998.4,N
1502545615.6,286046996.2,N
1502545635.5,286046993.5,N
1502545655.3,286046997.5,N
1502545675.1,286046995.0,N
1502545695.9,286046995.4,N
1502545715.7,286046997.8,N
1502545735.6,286046995.9,N
1502545755.4,286046993.3,N
1502545775.2,286046995.8,N
1502545795.1,286046997.7,N
1502545796.0,286046997.7,N
1502545815.8,286047001.0,N
1502545835.6,286046998.7,N
1502545855.5,286046996.2,N
1502545875.3,286046995.8,N
1502545895.1,286046994.9,N
1502545915.8,286046996.3,N
1502545935.7,286046997.4,N
1502545955.5,286046998.4,N
1502545975.3,286046999.2,N
1502545995.2,286047001.1,N
1502546015.0,286046998.3,N
1502546015.9,286046998.3,N
1502546035.7,286046999.2,N
1502546055.6,286047002.7,N
1502546075.4,286047001.0,N
1502546095.2,286046998.1,N
1502546115.1,286046999.9,N
1502546116.0,286046999.9,N
1502546135.8,286046998.1,N
1502546155.6,286046999.3,N
1502546175.3,286047000.8,N
1502546195.1,286047000.8,N
1502546196.0,286047000.8,N
1502546215.8,286047005.9,N
1502546235.7,286047003.5,N
1502546255.5,286047004.7,N
1502546275.3,286047002.9,N
1502546295.2,286047003.2,N
1502546315.9,286047003.3,N
1502546335.7,286047005.2,N
1502546355.6,286047006.6,N
1502546375.4,286047004.6,N
1502546395.2,286047009.1,N
